Location: Taupo
(38.6830°S, 176.0830°E)
Time: 02:46:22
(UTC+12:00)

Cosmos 2333 Rocket - Pass Details

Date: 24 January 2019
Orbit: 837 x 865 km, 70.8° (Epoch: 17 April)

Event Time Altitude Azimuth Distance (km) Brightness Sun altitude
Exits shadow 23:35:10 68° 77° (ENE) 937 2.2 -26.4°
Drops below altitude 10° 23:40:52 10° 152° (SSE) 2,531 5.1 -26.9°
Sets 23:43:21 0° 154° (SSE) 3,472 5.9 -27.1°
